Temp
63 63 63 63 62 62 63 63 63 63 62 62 62 62 62 62 62 65 75 86 82 74 77 77 76 77 78 74 75 68 55 52 57 58 62 66 65 70 74 70 73 74 71 74 75
62 62 62 62 62 62 62 62 62 63 62 62 62 62 62 62 65 73 84 78 74 75 82 81 78 78 70 71 71 64 55 60 67 68 63 68 66 68 70 68 69 71 74 75 74
62 62 62 62 63 62 62 62 62 63 63 62 62 61 61 60 70 82 78 75 75 77 83 84 84 80 70 70 69 63 62 67 70 71 71 68 67 69 68 63 69 68 69 71 70
61 62 62 62 62 62 62 62 63 63 63 62 61 61 61 63 68 82 77 75 76 78 81 81 79 73 67 67 70 65 70 70 71 74 71 68 70 68 68 69 74 74 73 70 67
61 61 61 61 62 62 62 62 62 62 62 62 62 62 63 71 78 81 77 77 79 80 84 83 77 72 69 70 70 66 69 72 74 73 71 73 69 70 69 74 75 75 74 70 66
60 60 61 61 61 62 61 61 61 61 61 61 62 62 71 69 83 81 81 79 82 78 84 83 82 78 73 69 67 69 69 70 69 70 73 71 67 71 71 74 74 73 70 69 68
59 60 60 61 61 61 62 61 60 61 62 62 64 72 73 80 85 81 83 80 81 84 86 86 85 79 75 69 71 67 65 68 68 69 69 72 64 67 72 74 72 72 72 70 68
59 59 60 60 61 62 62 62 62 62 63 64 66 69 74 84 80 81 81 85 86 85 86 86 86 78 72 70 69 64 61 58 67 71 70 69 57 69 72 72 70 71 72 71 68
59 59 59 60 61 62 61 62 62 64 64 66 67 67 73 79 84 89 86 86 87 88 84 94 82 72 72 64 61 60 54 57 63 70 68 66 60 70 73 72 69 70 69 70 67
59 59 59 60 61 61 60 61 63 64 68 75 80 71 78 80 89 89 87 88 88 85 84 81 71 65 62 61 56 60 56 57 61 68 67 64 63 66 71 72 71 70 67 69 68
59 59 59 59 60 60 58 71 72 71 75 72 74 75 82 89 91 87 90 90 85 82 71 72 68 64 67 68 70 68 62 63 66 71 67 64 66 64 70 71 69 69 69 68 69
59 59 59 59 60 60 58 71 74 75 67 80 79 78 85 86 82 85 91 80 78 72 73 70 64 75 78 71 70 67 63 62 67 70 65 64 62 64 69 70 71 69 70 71 69
57 58 58 59 61 63 64 73 76 70 64 74 79 80 82 85 81 84 88 79 76 70 69 67 74 79 78 73 68 64 63 64 65 65 64 61 59 59 66 69 71 71 72 72 69
57 57 57 57 66 61 68 75 75 70 57 68 73 83 85 83 78 89 90 84 74 70 72 71 75 77 75 72 71 61 72 70 69 60 54 59 50 57 59 62 68 70 72 73 72
57 57 57 56 60 61 73 73 75 73 49 71 75 86 80 80 79 83 88 83 73 75 74 71 71 71 70 72 74 67 72 67 65 55 52 56 52 56 58 60 64 69 73 73 75
57 57 56 59 55 63 67 70 71 58 51 69 76 74 73 74 78 81 81 84 81 74 72 69 77 74 74 79 77 75 68 62 56 53 47 52 52 54 55 62 65 67 69 72 71
56 57 54 65 64 64 67 67 57 52 71 68 69 70 70 71 73 75 73 69 67 61 61 69 72 77 78 71 73 68 58 49 49 46 47 53 52 56 63 66 67 67 69 69 70
55 55 55 63 58 66 65 62 48 65 67 76 73 70 69 71 71 71 69 67 69 67 59 59 60 71 77 71 66 61 59 51 43 43 48 55 49 59 66 67 68 66 66 64 64
53 56 57 62 61 64 62 52 56 64 73 73 71 65 65 70 70 69 67 66 70 70 63 58 63 75 77 76 71 62 57 61 53 50 47 50 57 65 64 66 63 64 67 65 63
51 52 57 66 68 64 57 53 61 72 76 74 64 68 62 66 68 67 65 71 72 74 71 66 60 71 75 76 73 65 67 57 51 44 41 48 50 53 60 61 60 62 63 63 62
52 56 67 67 68 60 52 55 66 76 77 71 67 66 66 65 66 62 66 73 75 72 72 65 62 65 68 66 64 62 57 54 52 50 44 42 50 59 60 60 59 60 61 60 60
52 54 69 69 60 49 53 62 66 75 77 75 72 70 67 67 65 66 68 72 76 74 68 65 59 55 63 69 70 64 60 57 51 49 47 47 50 61 59 59 61 60 62 60 61
51 53 67 70 53 52 58 68 72 72 73 73 71 72 70 67 62 68 70 76 75 73 68 66 56 51 57 63 67 61 62 59 53 50 46 47 52 63 61 59 59 58 62 61 61
51 52 59 60 57 57 56 62 65 73 73 74 71 72 69 67 66 64 68 75 77 74 66 66 56 55 52 57 60 61 64 60 56 48 49 51 57 59 58 61 60 59 60 60 59
51 52 56 54 59 55 58 61 64 66 70 71 68 69 65 60 64 64 68 70 75 71 68 65 58 57 61 65 65 65 64 62 59 57 55 57 56 59 61 60 61 59 60 62 61
51 53 55 54 57 56 54 59 64 68 67 67 64 69 68 62 62 61 65 64 64 71 63 61 58 57 59 65 66 64 66 65 64 62 60 60 58 63 63 61 61 62 62 62 63
52 55 57 52 55 54 56 61 67 67 70 72 69 67 67 69 71 69 69 68 66 64 64 62 58 54 53 61 62 55 61 63 63 63 61 57 64 62 65 64 63 65 62 64 64
MSLP
1019.72 1019.43 1018.89 1018.46 1017.93 1017.48 1017.10 1016.50 1016.02 1015.44 1015.00 1014.57 1014.26 1014.26 1014.07 1013.72 1013.26 1012.87 1011.77 1010.49 1010.44 1010.98 1011.50 1012.25 1012.70 1012.63 1012.59 1013.30 1013.90 1014.87 1016.58 1017.52 1017.33 1017.35 1016.76 1016.50 1016.76 1016.88 1016.76 1016.81 1016.65 1016.76 1017.17 1017.93 1018.88
1019.63 1019.18 1018.84 1018.34 1017.92 1017.38 1016.86 1016.43 1015.86 1015.24 1014.77 1014.39 1014.03 1013.98 1013.99 1013.81 1013.28 1011.96 1009.69 1010.10 1010.84 1011.13 1011.25 1011.67 1012.01 1012.54 1013.22 1013.53 1014.11 1014.95 1016.37 1016.29 1016.05 1016.08 1016.30 1016.42 1016.81 1016.77 1016.84 1017.02 1017.35 1017.51 1017.91 1018.50 1019.09
1019.71 1019.07 1018.65 1018.26 1017.85 1017.30 1016.57 1016.29 1015.71 1015.11 1014.46 1014.23 1013.92 1013.68 1013.72 1013.79 1012.91 1010.44 1009.76 1010.40 1010.51 1010.18 1010.33 1010.62 1011.03 1011.89 1012.85 1013.33 1013.96 1014.67 1014.99 1015.15 1015.12 1015.38 1015.53 1016.30 1016.84 1016.59 1016.53 1016.86 1016.67 1017.04 1017.84 1018.53 1019.04
1019.55 1019.13 1018.50 1018.09 1017.58 1017.15 1016.40 1015.89 1015.53 1014.91 1014.25 1013.99 1013.80 1013.55 1013.52 1013.53 1012.00 1009.63 1010.09 1010.14 1009.97 1010.51 1010.52 1010.52 1010.68 1011.67 1012.73 1013.24 1013.59 1014.04 1014.26 1014.39 1014.45 1014.81 1015.31 1015.87 1016.26 1016.56 1016.51 1016.36 1016.57 1017.16 1017.71 1018.64 1019.33
1019.41 1018.98 1018.35 1017.84 1017.37 1016.82 1016.20 1015.53 1015.13 1014.66 1013.98 1013.70 1013.66 1013.45 1013.38 1012.61 1010.69 1009.69 1010.08 1010.01 1010.22 1010.49 1010.95 1010.71 1010.98 1011.67 1012.62 1013.03 1013.35 1013.81 1013.84 1014.13 1014.00 1014.31 1015.11 1015.70 1015.89 1016.01 1016.29 1016.23 1016.72 1017.50 1018.19 1018.77 1019.21
1019.51 1018.94 1018.37 1017.71 1017.20 1016.56 1015.82 1015.21 1014.51 1014.28 1013.64 1013.38 1013.49 1013.39 1012.97 1011.46 1009.40 1009.69 1010.10 1010.03 1010.22 1010.55 1010.19 1010.59 1010.37 1010.99 1012.37 1013.32 1013.66 1014.01 1013.96 1014.22 1014.55 1014.76 1014.95 1015.63 1015.93 1015.64 1015.99 1016.09 1016.93 1017.42 1017.86 1018.24 1018.48
1019.59 1018.95 1018.18 1017.66 1017.10 1016.28 1015.32 1014.90 1014.10 1013.72 1013.20 1013.18 1013.23 1013.06 1012.30 1010.25 1009.25 1009.83 1010.23 1009.89 1009.73 1009.86 1009.91 1009.90 1010.12 1010.99 1011.95 1013.42 1014.04 1014.34 1014.62 1014.74 1014.83 1015.04 1015.32 1015.57 1016.27 1015.67 1015.74 1016.27 1016.94 1017.48 1017.67 1017.94 1018.35
1019.60 1018.92 1018.15 1017.64 1017.05 1015.98 1014.94 1014.41 1013.74 1013.09 1012.91 1013.10 1013.02 1012.83 1011.35 1009.58 1009.57 1009.95 1010.21 1009.74 1009.58 1009.55 1009.57 1009.65 1010.29 1011.20 1012.29 1013.25 1014.06 1014.67 1015.09 1015.07 1014.84 1015.09 1015.17 1015.24 1015.10 1015.49 1015.84 1016.18 1016.58 1016.91 1017.34 1017.74 1018.12
1019.55 1018.99 1018.10 1017.66 1017.04 1015.77 1014.72 1013.75 1013.43 1012.94 1013.02 1013.06 1012.93 1012.48 1010.86 1010.08 1009.78 1009.13 1009.40 1009.67 1009.38 1009.22 1009.43 1009.81 1010.56 1012.39 1012.92 1013.67 1014.30 1014.80 1015.04 1014.95 1014.70 1014.40 1015.07 1015.52 1014.73 1014.85 1015.50 1015.82 1016.21 1016.56 1016.77 1017.32 1017.98
1019.66 1018.88 1018.27 1017.57 1016.98 1015.79 1014.67 1013.16 1013.49 1013.30 1013.22 1012.91 1012.54 1012.33 1010.37 1009.82 1009.08 1008.66 1008.86 1009.21 1009.19 1009.18 1009.72 1010.25 1011.61 1012.89 1013.59 1014.04 1014.22 1014.27 1014.39 1014.17 1014.08 1013.99 1014.70 1015.23 1014.57 1014.67 1014.78 1015.00 1015.42 1016.39 1016.76 1016.90 1017.19
1019.71 1018.97 1018.25 1017.36 1016.61 1016.02 1014.93 1013.56 1013.94 1013.66 1012.95 1012.45 1011.97 1011.39 1010.25 1009.20 1008.54 1008.37 1008.39 1008.75 1008.91 1009.29 1009.98 1010.91 1011.79 1012.35 1012.26 1012.64 1012.44 1012.97 1013.61 1013.64 1013.14 1013.27 1014.02 1014.26 1014.29 1014.58 1014.61 1014.88 1015.16 1015.65 1016.22 1016.45 1016.58
1019.64 1018.89 1018.19 1017.22 1016.27 1015.80 1015.85 1015.36 1015.37 1015.59 1013.75 1011.58 1011.02 1010.71 1009.91 1009.45 1008.93 1008.33 1008.37 1008.86 1009.09 1009.71 1010.16 1010.92 1011.26 1010.96 1010.76 1011.14 1012.05 1012.62 1012.91 1013.24 1012.95 1013.22 1013.90 1014.41 1014.72 1014.24 1014.16 1013.86 1014.78 1015.34 1015.78 1015.97 1016.46
1019.56 1019.02 1018.34 1017.24 1015.95 1015.65 1016.16 1015.02 1014.58 1014.60 1013.97 1011.42 1010.26 1009.57 1008.95 1009.08 1008.77 1008.49 1008.62 1008.89 1009.26 1009.89 1010.47 1011.09 1010.61 1010.52 1010.41 1011.08 1011.83 1012.19 1012.61 1012.74 1013.15 1013.99 1014.39 1014.74 1015.08 1014.86 1014.34 1014.52 1014.31 1014.93 1015.04 1014.86 1015.44
1019.68 1019.11 1018.54 1017.50 1015.98 1016.69 1015.59 1014.48 1014.22 1014.09 1013.55 1011.16 1009.70 1008.23 1008.29 1008.41 1008.57 1008.09 1008.18 1008.80 1009.39 1010.04 1010.37 1010.70 1010.44 1010.53 1010.28 1010.22 1010.66 1011.62 1011.43 1012.44 1013.28 1014.22 1015.05 1015.40 1016.01 1015.15 1015.20 1014.89 1014.48 1014.43 1013.70 1013.72 1013.48
1019.66 1019.19 1019.00 1018.63 1017.92 1017.19 1015.23 1014.34 1013.77 1013.63 1012.67 1010.16 1008.90 1007.62 1007.88 1008.45 1008.40 1008.14 1008.07 1008.63 1009.29 1010.01 1010.59 1010.24 1010.41 1010.24 1010.10 1009.82 1010.26 1011.28 1011.60 1012.89 1013.88 1014.70 1015.50 1015.98 1016.29 1015.23 1015.20 1014.68 1013.94 1013.39 1013.28 1013.13 1012.84
1019.61 1019.16 1019.04 1018.52 1018.16 1016.21 1015.34 1014.39 1013.99 1013.85 1011.53 1009.54 1008.43 1008.16 1008.49 1008.39 1008.40 1008.28 1008.35 1008.51 1009.07 1009.98 1010.41 1010.57 1010.12 1009.80 1009.72 1009.62 1009.82 1010.70 1012.09 1013.60 1014.89 1015.57 1016.49 1016.56 1016.67 1015.55 1014.89 1014.09 1013.50 1012.86 1012.78 1012.71 1012.40
1019.44 1018.75 1018.95 1018.21 1016.69 1015.61 1015.34 1015.01 1014.43 1013.05 1010.95 1009.60 1008.83 1008.71 1008.70 1008.92 1008.96 1008.86 1009.07 1009.44 1009.97 1010.60 1011.07 1010.77 1010.16 1009.37 1009.33 1009.83 1010.57 1011.32 1012.89 1014.93 1016.16 1016.70 1017.09 1016.51 1016.53 1014.79 1013.91 1013.42 1013.30 1013.57 1013.22 1012.47 1011.65
1019.15 1018.11 1017.22 1016.53 1015.88 1015.77 1015.95 1015.60 1014.34 1012.44 1010.72 1009.30 1008.76 1008.97 1009.13 1009.18 1009.23 1009.33 1009.69 1010.12 1010.22 1010.93 1011.59 1011.49 1010.80 1009.76 1009.46 1009.87 1010.90 1012.26 1013.25 1015.05 1016.60 1017.53 1017.37 1016.74 1016.00 1013.94 1013.39 1013.56 1013.70 1014.04 1013.79 1012.91 1012.15
1018.74 1017.57 1017.13 1015.26 1015.43 1016.06 1016.23 1016.04 1014.25 1012.40 1010.67 1009.62 1009.05 1009.41 1009.49 1009.29 1009.48 1009.57 1009.82 1010.16 1010.24 1010.38 1011.32 1011.79 1010.98 1010.03 1009.84 1010.13 1011.11 1012.16 1013.39 1014.34 1016.05 1017.39 1017.66 1016.91 1015.49 1013.74 1013.63 1014.15 1014.44 1014.47 1013.55 1013.28 1012.98
1019.85 1018.62 1016.83 1014.82 1014.97 1015.73 1016.49 1015.75 1013.88 1011.99 1010.58 1009.58 1009.45 1009.41 1009.69 1009.60 1009.70 1009.91 1010.09 1009.58 1009.72 1009.73 1009.95 1011.28 1011.47 1010.48 1010.30 1010.43 1011.22 1011.92 1013.33 1014.71 1016.24 1017.69 1018.00 1016.94 1015.97 1014.94 1014.29 1014.78 1014.87 1014.70 1014.60 1014.09 1013.92
1020.12 1019.01 1015.25 1014.84 1014.87 1015.97 1016.62 1015.43 1013.46 1011.31 1010.45 1009.70 1009.51 1009.52 1009.65 1009.72 1009.76 1009.92 1009.98 1009.36 1009.07 1009.62 1010.18 1011.28 1011.73 1011.12 1011.05 1011.18 1011.59 1012.44 1013.68 1015.46 1016.69 1017.74 1018.02 1017.73 1015.60 1014.26 1014.28 1014.82 1014.91 1015.18 1015.20 1014.92 1014.70
1020.24 1018.94 1015.52 1015.13 1015.91 1016.67 1016.38 1014.78 1013.13 1011.38 1010.23 1009.66 1009.49 1009.48 1009.66 1009.68 1009.75 1009.66 1009.70 1009.19 1009.04 1009.31 1010.54 1011.36 1012.38 1012.67 1012.15 1011.51 1011.53 1012.08 1013.25 1014.65 1016.59 1017.70 1018.12 1017.56 1015.34 1014.09 1014.25 1014.60 1014.82 1015.21 1015.32 1015.37 1014.99
1020.97 1019.06 1015.67 1015.18 1016.66 1016.86 1015.68 1014.40 1012.99 1011.65 1010.41 1009.97 1009.82 1009.96 1010.05 1010.11 1010.24 1009.96 1009.71 1009.42 1009.20 1009.57 1010.34 1011.46 1013.00 1013.55 1012.95 1012.24 1011.73 1012.36 1013.10 1014.08 1015.65 1016.53 1017.23 1017.22 1015.14 1014.23 1014.38 1014.96 1015.31 1015.52 1015.46 1015.67 1015.40
1021.38 1019.97 1017.32 1016.48 1016.94 1016.53 1015.81 1014.38 1012.97 1011.32 1010.56 1010.14 1010.15 1010.16 1010.40 1010.59 1010.55 1010.64 1010.28 1009.94 1009.72 1010.01 1010.58 1011.26 1013.28 1013.82 1013.84 1013.08 1012.78 1012.78 1012.77 1013.71 1014.69 1016.30 1016.24 1015.78 1014.78 1014.28 1014.48 1014.85 1015.39 1015.41 1015.38 1015.66 1015.81
1021.48 1020.27 1019.09 1018.27 1017.29 1016.62 1015.83 1014.72 1013.34 1011.97 1010.86 1010.38 1010.59 1010.80 1010.84 1011.28 1011.26 1011.13 1010.73 1010.51 1010.41 1010.66 1011.15 1012.07 1013.62 1013.82 1013.46 1013.05 1012.88 1012.70 1012.52 1013.18 1013.91 1014.47 1015.01 1014.45 1014.40 1014.07 1014.29 1014.81 1014.89 1015.67 1015.69 1015.55 1015.25
1021.46 1020.43 1019.35 1018.50 1017.45 1016.65 1015.96 1014.48 1013.29 1012.00 1011.25 1010.98 1011.03 1011.05 1010.97 1011.47 1011.69 1011.57 1011.24 1010.99 1011.16 1011.15 1011.85 1012.72 1013.67 1013.87 1013.73 1013.21 1012.74 1012.52 1012.67 1013.05 1013.19 1013.65 1014.11 1013.92 1013.57 1013.56 1013.80 1014.39 1014.99 1015.23 1015.45 1015.35 1015.21
1020.94 1020.18 1019.72 1018.54 1017.53 1016.75 1015.76 1014.32 1013.08 1012.17 1011.45 1011.07 1011.01 1011.18 1011.33 1011.39 1011.39 1011.23 1011.32 1011.33 1011.38 1011.78 1012.52 1013.37 1014.21 1014.73 1014.54 1013.78 1013.12 1013.10 1012.97 1013.14 1013.49 1013.68 1013.89 1013.74 1013.41 1013.46 1013.90 1014.59 1015.27 1015.22 1015.23 1015.28 1015.33
Wind_Speed
16 16 17 15 16 15 14 15 15 15 12 12 11 9 10 12 9 1 4 8 5 13 7 7 1 1 2 3 4 3 6 2 6 7 5 2 3 1 2 3 3 4 4 11 10
18 17 16 17 16 15 15 15 15 15 13 12 11 9 8 10 2 4 7 9 12 13 6 8 5 7 2 3 2 5 4 8 6 5 4 6 4 7 4 2 5 10 12 10 8
17 18 17 16 16 15 16 15 15 16 16 12 10 9 7 6 1 5 8 11 12 13 4 5 6 7 4 3 3 3 4 5 5 5 9 6 3 3 10 3 11 18 11 8 7
17 17 18 17 17 16 16 17 15 16 16 13 9 8 7 1 4 3 13 9 10 2 3 2 0 5 5 2 0 3 1 6 8 8 8 9 4 2 2 4 9 10 14 7 8
19 18 18 19 18 18 17 18 17 16 16 12 8 5 0 2 5 5 11 7 4 3 3 4 2 6 8 4 3 3 1 4 5 10 7 7 6 7 5 8 12 12 10 10 8
19 18 18 19 20 19 19 18 19 17 14 11 5 3 1 1 1 8 9 3 3 3 4 8 5 4 7 4 3 0 2 5 3 6 6 10 3 6 4 13 14 12 11 10 11
18 18 18 20 21 21 23 18 20 18 13 8 2 1 1 6 2 7 8 4 2 3 4 4 4 1 5 5 3 3 5 4 3 5 5 7 2 6 9 13 14 11 10 9 8
18 19 19 20 21 23 25 23 24 15 6 4 2 0 5 3 6 5 6 6 6 4 3 3 7 6 4 3 5 4 4 4 5 7 6 5 8 8 11 14 14 12 10 9 8
18 19 19 20 21 23 26 27 17 2 3 5 2 2 4 0 2 6 6 4 3 4 3 5 7 5 4 5 5 6 2 3 2 8 5 6 6 9 14 14 14 12 10 9 6
18 19 19 20 21 22 28 20 4 4 2 3 2 3 2 2 5 4 6 4 5 2 4 4 6 4 4 4 5 5 2 5 6 7 7 9 13 6 18 17 16 12 8 10 12
18 19 19 21 23 17 14 6 9 6 5 4 3 3 4 6 4 3 3 4 2 5 2 2 3 4 9 11 7 4 2 5 3 7 7 11 11 7 17 16 13 12 12 12 15
18 19 21 22 25 18 0 4 7 6 9 6 8 5 7 3 3 2 3 3 3 1 2 8 4 7 13 6 5 4 2 5 5 3 3 1 3 8 16 21 13 9 10 14 9
17 18 21 25 26 3 2 2 4 4 2 8 5 4 5 8 5 6 7 2 2 1 2 4 10 8 8 4 3 3 6 6 5 2 3 1 5 6 2 3 7 6 8 12 14
17 17 19 28 5 6 6 8 8 4 4 6 3 7 4 5 2 5 7 5 1 2 3 4 2 4 11 7 6 4 8 4 4 3 1 3 5 6 3 6 8 9 14 13 17
17 16 14 8 4 4 7 13 11 4 2 1 4 1 1 7 3 4 3 4 4 5 2 9 4 4 6 6 4 2 8 4 3 3 3 4 4 9 1 4 8 12 14 11 15
17 16 12 2 1 8 9 12 3 6 1 2 5 5 4 1 2 2 2 3 2 4 2 3 6 2 5 4 0 8 6 7 4 4 5 3 3 7 4 5 6 5 6 9 14
19 19 3 2 6 2 6 5 6 3 4 2 4 3 4 4 2 3 1 0 3 3 5 6 6 7 2 4 7 7 6 4 6 6 6 1 1 10 6 8 9 7 11 14 9
21 22 6 6 3 4 4 6 1 2 6 4 3 3 5 5 4 3 5 2 2 4 3 2 10 2 2 3 5 2 5 7 4 2 5 3 4 7 4 7 5 6 7 7 2
22 4 4 5 6 4 6 4 5 4 5 6 4 4 4 3 4 3 6 6 8 9 9 5 7 4 3 4 2 3 2 5 5 2 3 3 7 9 1 5 8 6 7 8 8
5 5 5 3 7 5 6 4 4 5 6 4 3 1 2 3 5 6 6 4 5 10 6 7 4 4 4 2 6 3 3 4 3 0 3 5 5 6 5 2 1 5 7 10 9
3 5 5 4 3 7 3 6 6 7 5 1 2 1 1 2 4 3 2 5 4 3 6 5 5 8 1 4 7 2 2 6 5 5 5 3 8 6 5 2 7 5 8 9 9
2 3 3 2 5 1 2 5 5 6 4 4 1 1 2 2 2 4 4 5 4 6 8 3 6 3 7 6 4 2 4 6 6 4 1 3 9 3 4 4 6 3 6 6 7
1 4 3 5 2 3 6 5 4 5 3 4 3 4 4 4 4 4 0 4 5 2 5 6 2 4 9 9 6 1 3 4 5 4 6 5 8 3 3 4 3 3 8 6 6
2 3 6 5 1 5 2 5 5 5 4 1 2 4 6 8 6 4 6 5 5 4 8 9 3 6 8 6 3 4 4 5 6 4 4 6 7 4 2 4 3 3 5 8 7
1 4 2 3 4 2 3 3 4 5 3 3 4 2 2 3 5 6 5 5 4 4 4 6 3 4 5 4 3 4 4 3 6 4 4 5 3 5 4 4 5 3 5 7 7
2 1 4 3 3 2 6 5 5 4 0 4 4 3 5 5 2 2 2 3 1 6 3 4 2 0 3 3 5 3 7 6 3 1 3 2 2 7 3 3 5 6 7 9 9
3 2 4 4 4 2 4 5 2 1 3 3 2 4 5 3 3 4 4 1 1 1 1 2 5 3 5 4 5 6 2 2 3 3 2 2 4 4 1 1 3 5 4 7 9
Wind_Direction
344 340 336 340 334 332 339 331 328 324 325 319 317 321 320 316 315 283 253 184 168 160 99 107 58 103 61 89 84 115 69 169 193 162 222 124 121 6 304 111 27 12 99 124 122
340 339 339 333 334 330 336 330 326 320 321 319 317 321 327 325 263 257 257 84 121 151 154 174 175 125 131 116 52 84 104 210 184 168 172 156 151 176 129 107 55 84 93 116 127
338 336 336 333 336 331 329 328 323 319 317 319 317 321 331 325 140 249 87 95 155 190 202 180 144 160 89 126 187 156 179 183 203 161 134 144 186 215 136 214 174 153 146 139 135
337 335 332 336 333 331 326 321 321 315 312 313 315 321 336 316 135 269 100 138 188 138 303 349 68 67 82 194 51 117 223 185 158 162 143 161 149 141 213 208 143 151 145 135 154
336 334 335 334 331 331 325 316 317 308 304 303 309 329 199 354 248 75 112 168 158 158 179 150 76 123 141 154 62 55 178 175 181 149 152 133 195 166 220 129 125 137 152 162 170
331 332 332 334 329 329 320 319 313 308 296 293 300 299 353 173 156 131 128 187 202 153 238 160 190 186 107 65 81 280 62 90 119 157 145 167 202 133 179 140 150 163 175 180 174
330 329 336 333 327 327 320 328 312 310 292 276 273 278 115 223 131 141 144 239 213 211 344 30 103 169 137 120 140 53 62 25 156 170 169 116 305 229 151 156 163 182 190 191 190
330 328 334 331 326 325 322 327 316 307 274 210 173 145 230 352 109 126 150 294 272 264 236 126 73 91 54 130 57 100 65 156 215 189 190 130 251 208 169 164 183 191 204 196 190
332 325 333 328 327 326 323 321 313 41 149 152 96 55 266 315 183 213 164 193 221 243 255 87 70 66 28 74 5 36 217 238 224 206 147 206 260 188 179 187 197 199 200 194 190
330 327 327 327 324 329 325 313 140 116 206 216 255 48 328 251 269 203 187 200 257 305 76 84 60 69 23 74 239 240 230 242 217 198 175 204 253 180 190 197 198 203 209 200 197
329 326 327 328 321 336 342 6 9 348 38 214 238 258 276 286 233 259 166 159 83 50 64 64 87 277 234 199 220 167 159 263 236 214 159 219 243 219 200 212 206 200 205 208 215
328 330 329 327 317 329 351 57 117 260 300 242 240 243 249 236 320 280 133 160 90 254 18 15 298 270 291 169 156 161 196 254 310 40 110 251 310 310 196 212 206 217 216 222 212
330 330 329 324 315 28 296 230 347 312 262 296 227 201 211 146 195 245 138 164 147 119 85 155 257 329 27 27 125 210 183 227 178 87 56 340 313 330 333 213 201 214 221 213 206
327 329 332 321 48 329 294 303 323 233 47 275 240 270 153 156 232 214 172 146 56 196 204 222 358 354 309 303 139 239 197 159 147 106 245 34 286 289 322 299 247 225 228 216 213
323 324 327 316 284 333 284 325 316 66 22 165 200 328 85 141 196 224 184 86 204 210 81 255 350 310 315 265 158 269 69 55 90 120 78 356 57 274 57 274 246 254 259 234 220
318 317 333 70 259 245 313 306 46 42 321 356 159 166 109 220 233 1 127 49 173 169 191 263 256 233 217 339 266 153 76 54 47 59 29 281 107 285 263 237 301 262 292 261 220
316 308 290 272 248 314 337 15 38 107 336 269 204 138 165 154 254 159 219 273 171 76 294 350 294 283 185 11 19 51 64 3 7 3 226 28 45 241 259 241 233 329 317 315 228
315 309 227 217 238 34 27 44 69 275 266 292 138 82 153 158 238 188 146 236 236 108 88 103 331 340 358 177 157 72 128 140 245 249 271 5 249 267 240 335 44 42 286 315 287
313 320 286 263 186 127 71 65 221 231 290 326 56 92 331 268 184 137 192 205 221 167 164 164 261 308 19 57 28 171 73 165 108 15 39 260 289 315 10 28 30 319 350 335 310
327 343 273 288 149 71 73 237 254 234 321 4 82 122 144 277 167 154 188 218 228 185 148 211 301 234 203 36 55 127 122 41 19 1 304 295 288 243 303 188 9 1 325 309 324
9 356 261 182 79 52 153 238 280 269 268 46 15 359 190 266 187 163 177 280 207 137 100 132 121 283 121 181 204 346 35 57 107 125 169 276 276 213 270 217 199 254 290 303 299
41 343 298 55 59 44 206 205 279 289 343 22 99 331 23 319 94 128 191 230 21 167 138 168 140 223 236 300 221 159 156 133 123 241 225 152 275 19 99 122 175 233 290 316 288
3 263 305 96 132 292 287 286 275 301 337 17 342 39 11 347 64 45 345 351 22 74 142 180 35 39 349 352 355 357 206 127 104 87 195 146 264 135 99 112 302 291 284 305 301
44 337 319 48 116 148 332 279 302 278 267 144 293 53 33 15 3 24 23 347 4 66 77 91 99 148 190 211 212 304 282 139 131 122 188 229 289 305 173 247 198 252 273 283 288
66 255 210 286 291 215 163 278 315 310 357 338 46 38 197 65 1 2 3 2 21 14 63 96 117 195 226 250 238 245 9 171 190 168 183 256 229 282 185 255 291 263 288 299 290
200 77 349 283 297 216 181 242 214 272 68 350 69 65 63 95 105 311 327 33 58 348 52 4 194 86 317 305 316 317 30 333 39 144 274 189 214 224 117 95 311 294 311 317 320
286 294 112 276 304 139 221 248 259 184 349 86 121 98 55 336 237 220 216 250 213 177 106 100 136 101 266 345 343 9 321 27 350 5 282 192 255 110 230 265 290 293 280 294 298